Weather History for Hazen, ND

Change the Weather History Date:

Thursday, July 19, 2012

  Actual Average (KN60) Record (KN60)
Temperature  
Mean Temperature 83 °F -  
Max Temperature 102 °F 78 °F 101 °F (2012)
Min Temperature 64 °F 55 °F 48 °F (2000)
Cooling Degree Days 18    
Growing Degree Days 33 (Base 50)    
Moisture  
Dew Point 59 °F    
Average Humidity 48    
Maximum Humidity 88    
Minimum Humidity 18    
Precipitation  
Precipitation 0.03 in - - ()
Sea Level Pressure  
Sea Level Pressure 29.91 in    
Wind  
Wind Speed 9 mph (SSW)    
Max Wind Speed 23 mph    
Max Gust Speed 30 mph    
Visibility 10 miles    
Events Rain , Thunderstorm    
Averages and records for this station are not official NWS values.
T = Trace of Precipitation, MM = Missing Value Source: NWS Daily Summary

Daily Weather History Graph

Daily Weather History Graph

Search for Another Location

Airport:

Trip Planner

Search our weather history database for the weather conditions in past years. The results will help you decide how hot, cold, wet, or windy it might be!

Date:

Astronomy

Jul. 19, 2012 Rise Set
Actual Time 6:10 AM CDT 9:34 PM CDT
Civil Twilight 5:32 AM CDT 10:12 PM CDT
Nautical Twilight 4:42 AM CDT 11:01 PM CDT
Astronomical Twilight 3:37 AM CDT 12:05 AM CDT
Moon 6:53 AM CDT (7/19) 9:32 PM CDT (7/19)
Length of Visible Light 16h 39m
Length of Day
15h 24m
New Moon, 0% of the Moon is Illuminated
Jul 19
New Moon
Jul 26
First Quarter
Aug 1
Full
Aug 9
Last Quarter
Aug 17
New

Hourly Weather History & Observations

Time (CDT) Temp. Heat Index Dew Point Humidity Pressure Visibility Wind Dir Wind Speed Gust Speed Precip Events Conditions
12:15 AM 77.0 °F - 64.4 °F 65% 29.88 in 10.0 mi SSE 13.8 mph - N/A   Clear
12:35 AM 75.2 °F - 64.4 °F 69% 29.89 in 10.0 mi South 5.8 mph - N/A   Clear
12:55 AM 73.4 °F - 64.4 °F 73% 29.89 in 10.0 mi NE 4.6 mph - N/A   Clear
1:15 AM 75.2 °F - 62.6 °F 65% 29.90 in 10.0 mi Calm Calm - N/A   Clear
1:35 AM 73.4 °F - 62.6 °F 69% 29.91 in 10.0 mi NW 3.5 mph - N/A   Clear
1:55 AM 69.8 °F - 62.6 °F 78% 29.91 in 10.0 mi SW 5.8 mph - N/A   Clear
2:15 AM 71.6 °F - 62.6 °F 73% 29.92 in 10.0 mi SSW 3.5 mph - N/A   Clear
2:35 AM 69.8 °F - 62.6 °F 78% 29.91 in 10.0 mi Calm Calm - N/A   Clear
2:55 AM 68.0 °F - 62.6 °F 83% 29.91 in 10.0 mi Calm Calm - N/A   Clear
3:15 AM 66.2 °F - 62.6 °F 88% 29.91 in 10.0 mi West 4.6 mph - N/A   Clear
4:15 AM 66.2 °F - 62.6 °F 88% 29.91 in 10.0 mi WSW 5.8 mph - N/A   Clear
4:55 AM 66.2 °F - 60.8 °F 83% 29.91 in 10.0 mi SW 5.8 mph - N/A   Clear
5:15 AM 66.2 °F - 60.8 °F 83% 29.92 in 10.0 mi WSW 6.9 mph - N/A   Clear
5:35 AM 64.4 °F - 60.8 °F 88% 29.92 in 10.0 mi WSW 6.9 mph - N/A   Clear
5:55 AM 64.4 °F - 59.0 °F 83% 29.91 in 10.0 mi SW 4.6 mph - N/A   Clear
6:15 AM 64.4 °F - 59.0 °F 83% 29.91 in 10.0 mi SSW 4.6 mph - N/A   Clear
6:35 AM 66.2 °F - 59.0 °F 78% 29.91 in 10.0 mi WSW 5.8 mph - N/A   Clear
6:55 AM 66.2 °F - 60.8 °F 83% 29.91 in 9.0 mi NE 4.6 mph - N/A   Clear
7:15 AM 68.0 °F - 60.8 °F 78% 29.91 in 10.0 mi Calm Calm - N/A   Clear
7:35 AM 71.6 °F - 62.6 °F 73% 29.92 in 10.0 mi Calm Calm - N/A   Clear
7:55 AM 75.2 °F - 62.6 °F 65% 29.91 in 10.0 mi Calm Calm - N/A   Clear
8:35 AM 84.2 °F 85.0 °F 62.6 °F 48% 29.91 in 10.0 mi SW 9.2 mph - N/A   Clear
8:55 AM 84.2 °F 85.0 °F 62.6 °F 48% 29.92 in 10.0 mi SSW 10.4 mph - N/A   Clear
9:15 AM 86.0 °F 87.3 °F 64.4 °F 48% 29.92 in 10.0 mi SSW 9.2 mph - N/A   Clear
9:35 AM 89.6 °F 91.1 °F 64.4 °F 43% 29.92 in 10.0 mi SW 8.1 mph - N/A   Clear
9:55 AM 89.6 °F 90.1 °F 62.6 °F 40% 29.92 in 10.0 mi SW 9.2 mph 18.4 mph N/A   Clear
10:15 AM 91.4 °F 92.1 °F 62.6 °F 38% 29.91 in 10.0 mi SW 16.1 mph 21.9 mph N/A   Clear
10:35 AM 93.2 °F 94.1 °F 62.6 °F 36% 29.91 in 10.0 mi SW 17.3 mph 23.0 mph N/A   Clear
10:55 AM 95.0 °F 96.0 °F 62.6 °F 34% 29.91 in 10.0 mi SSW 11.5 mph 19.6 mph N/A   Clear
11:15 AM 95.0 °F 94.4 °F 59.0 °F 30% 29.91 in 10.0 mi SW 15.0 mph 20.7 mph N/A   Clear
11:35 AM 98.6 °F 99.4 °F 60.8 °F 29% 29.91 in 10.0 mi SW 10.4 mph 17.3 mph N/A   Unknown
11:55 AM 98.6 °F 98.5 °F 59.0 °F 27% 29.92 in 10.0 mi SSW 17.3 mph 24.2 mph N/A   Unknown
12:15 PM 98.6 °F 99.4 °F 60.8 °F 29% 29.92 in 10.0 mi South 17.3 mph 24.2 mph N/A   Unknown
12:35 PM 98.6 °F 98.5 °F 59.0 °F 27% 29.93 in 10.0 mi SSW 12.7 mph 23.0 mph N/A   Unknown
12:55 PM 98.6 °F 97.6 °F 57.2 °F 25% 29.92 in 10.0 mi SSW 16.1 mph 24.2 mph N/A   Unknown
1:15 PM 100.4 °F 99.7 °F 57.2 °F 24% 29.91 in 10.0 mi South 16.1 mph 21.9 mph N/A   Unknown
1:35 PM 100.4 °F 98.8 °F 55.4 °F 22% 29.91 in 10.0 mi SSW 12.7 mph 21.9 mph N/A   Unknown
1:55 PM 102.2 °F 100.9 °F 55.4 °F 21% 29.91 in 10.0 mi SSW 13.8 mph 19.6 mph N/A   Unknown
2:15 PM 102.2 °F - 51.8 °F 18% 29.90 in 10.0 mi SSW 16.1 mph 24.2 mph N/A   Unknown
2:35 PM 102.2 °F 100.4 °F 53.6 °F 20% 29.89 in 10.0 mi SSW 23.0 mph 29.9 mph N/A   Unknown
2:55 PM 102.2 °F 100.4 °F 53.6 °F 20% 29.89 in 10.0 mi SSW 18.4 mph 27.6 mph N/A   Unknown
3:15 PM 102.2 °F 100.4 °F 53.6 °F 20% 29.89 in 10.0 mi SSW 18.4 mph 29.9 mph N/A   Unknown
3:35 PM 102.2 °F 100.9 °F 55.4 °F 21% 29.89 in 10.0 mi SSW 17.3 mph 26.5 mph N/A   Unknown
3:55 PM 102.2 °F 100.4 °F 53.6 °F 20% 29.88 in 10.0 mi SW 17.3 mph 28.8 mph N/A   Unknown
4:15 PM 100.4 °F 98.4 °F 53.6 °F 21% 29.88 in 10.0 mi South 18.4 mph 24.2 mph N/A   Unknown
4:35 PM 98.6 °F 96.4 °F 53.6 °F 22% 29.88 in 10.0 mi South 21.9 mph 27.6 mph N/A   Unknown
4:55 PM 98.6 °F 96.4 °F 53.6 °F 22% 29.88 in 10.0 mi South 13.8 mph 24.2 mph N/A   Unknown
5:15 PM 95.0 °F 93.0 °F 55.4 °F 26% 29.89 in 10.0 mi South 9.2 mph - N/A   Unknown
5:35 PM 95.0 °F 93.7 °F 57.2 °F 28% 29.88 in 10.0 mi SSE 10.4 mph - N/A   Clear
5:55 PM 96.8 °F 95.8 °F 57.2 °F 27% 29.88 in 10.0 mi SSE 10.4 mph - N/A   Clear
6:15 PM 95.0 °F 94.4 °F 59.0 °F 30% 29.87 in 10.0 mi South 9.2 mph - N/A   Clear
6:35 PM 98.6 °F 98.5 °F 59.0 °F 27% 29.86 in 10.0 mi South 12.7 mph - N/A   Clear
6:55 PM 95.0 °F 93.7 °F 57.2 °F 28% 29.87 in 10.0 mi South 9.2 mph 19.6 mph N/A   Clear
7:15 PM 86.0 °F 84.9 °F 57.2 °F 37% 29.89 in 9.0 mi NE 10.4 mph - N/A   Clear
7:35 PM 87.8 °F 86.1 °F 55.4 °F 33% 29.90 in 10.0 mi ENE 10.4 mph - N/A   Clear
7:55 PM 84.2 °F 83.5 °F 57.2 °F 40% 29.91 in 10.0 mi NE 8.1 mph - N/A   Clear
8:15 PM 82.4 °F 82.0 °F 57.2 °F 42% 29.91 in 10.0 mi ENE 6.9 mph - N/A   Clear
8:35 PM 82.4 °F 82.0 °F 57.2 °F 42% 29.91 in 10.0 mi East 8.1 mph - N/A   Clear
8:55 PM 82.4 °F 82.0 °F 57.2 °F 42% 29.92 in 10.0 mi ENE 4.6 mph - N/A   Clear
9:15 PM 77.0 °F - 59.0 °F 54% 29.92 in 8.0 mi ESE 9.2 mph - N/A Rain Light Rain
9:35 PM 78.8 °F - 57.2 °F 47% 29.93 in 10.0 mi South 13.8 mph - N/A   Scattered Clouds
9:55 PM 82.4 °F 82.5 °F 59.0 °F 45% 29.92 in 3.0 mi South 10.4 mph 21.9 mph 0.03 in Rain Heavy Rain
10:15 PM 78.8 °F - 62.6 °F 57% 29.91 in 10.0 mi SE 11.5 mph - N/A   Clear
10:35 PM 77.0 °F - 60.8 °F 57% 29.92 in 10.0 mi SE 9.2 mph - N/A   Clear
10:55 PM 78.8 °F - 59.0 °F 51% 29.92 in 10.0 mi SE 8.1 mph - N/A   Clear
11:15 PM 77.0 °F - 62.6 °F 61% 29.93 in 10.0 mi Calm Calm - N/A   Clear
11:35 PM 77.0 °F - 62.6 °F 61% 29.92 in 10.0 mi Calm Calm - N/A   Clear
11:55 PM 77.0 °F - 59.0 °F 54% 29.96 in 10.0 mi NNW 12.7 mph 28.8 mph N/A Thunderstorm Thunderstorm